Regional Weather Roundup
Issued by NWS

Home | Current Version | Previous Version | Text Only | Print | Product List | Glossary On
Versions: 1 2 3 4 5 6 7 8 9 10 11 12 13 14 15 16 17 18 19 20 21 22 23 24 25 26 27 28 29 30 31 32 33 34 35 36 37 38 39 40 41 42 43 44 45 46 47 48 49 50
350
ASUS43 KMPX 290810
RWRMN
WEATHER ROUNDUP FOR MINNESOTA
NATIONAL WEATHER SERVICE TWIN CITIES/CHANHASSEN MN
300 AM CDT SUN MAY 29 2016


NOTE: "FAIR" INDICATES FEW OR NO CLOUDS BELOW 12,000 FEET WITH NO
SIGNIFICANT WEATHER AND/OR OBSTRUCTIONS TO VISIBILITY. N/A MEANS
CURRENT SKY AND/OR WEATHER CONDITIONS ARE NOT AVAILABLE.

MNZ060>063-068>070-290900-
   Twin Cities Metro

CITY           SKY/WX    TMP DP  RH WIND       PRES   REMARKS
TWIN CITIES    MOCLDY    62  60  93 SW5       29.84S
ST PAUL        MOCLDY    62  60  93 W3        29.83F
CRYSTAL        CLOUDY    63  58  83 W7        29.82S
BLAINE         CLOUDY    63  63 100 W3        29.83S
EDEN PRAIRIE   CLOUDY    62  59  90 W3        29.83F
SOUTH ST PAUL  MOCLDY    62  60  96 CALM      29.83F FOG
LAKE ELMO      CLOUDY    61  61 100 W5        29.84S
$$
MNZ001>005-007-008-013>017-022>024-027-028-290900-
   Northwest Minnesota

CITY           SKY/WX    TMP DP  RH WIND       PRES   REMARKS
BEMIDJI        LGT RAIN  56  55  99 NW7       29.82F
HALLOCK        CLOUDY    59  55  88 N5        29.87S
ROSEAU         CLOUDY    55  52  88 NW6       29.85S HAZE
WARROAD        DRIZZLE   55  52  88 NW5       29.85S
THIEF RVR FALL CLOUDY    55  54  94 NW3       29.88R
CROOKSTON      CLOUDY    57  57 100 CALM      29.87S
FOSSTON        CLOUDY    54  54 100 NW3       29.86S
DETROIT LAKES  DRIZZLE   57  55  94 NW8       29.87S
MOORHEAD       CLOUDY    61  59  94 NW5       29.88R
PARK RAPIDS    LGT RAIN  58  56  93 W6        29.83S
MAHNOMEN       DRIZZLE   56  55  98 NW6       29.86R
$$
MNZ006-009>011-018-025>026-290900-
   North Central Minnesota

CITY           SKY/WX    TMP DP  RH WIND       PRES   REMARKS
BAUDETTE       LGT RAIN  55  53  93 NW5       29.82F FOG
FLAG ISLAND    CLOUDY    55  54  94 N10       29.83S FOG
INTL FALLS     FOG       57  56  96 N3        29.79F VSB 1/4
WASKISH        LGT RAIN  55  55 100 NW3       29.82S
BIG FORK       HVY RAIN  57  57 100 CALM      29.80S
LONGVILLE      DRIZZLE   59  57  94 CALM      29.81S
GRAND RAPIDS   CLOUDY    59  58  96 CALM      29.81F
CRANE LAKE     DRZL/FOG  57  57 100 CALM      29.80S VSB 1
ORR            CLOUDY    57  55  94 CALM      29.76F FOG
COOK           RAIN      57  57 100 CALM      29.79F
WALKER         CLOUDY    57  56  97 W5        29.81F
$$
MNZ012-019>021-037-290900-
   Northeast Minnesota

CITY           SKY/WX    TMP DP  RH WIND       PRES   REMARKS
DULUTH         LGT RAIN  56  55  97 CALM      29.79F FOG
ELY            CLOUDY    59  57  94 CALM      29.78F FOG
HIBBING        CLOUDY    57  57 100 CALM      29.79F FOG
EVELETH        CLOUDY    57  55  94 CALM      29.81F
DULUTH HARBOR  DRZL/FOG  54  52  94 CALM      29.81S VSB 3/4
TWO HARBORS    FOG       55  52  88 CALM      29.78S VSB 1/2
SILVER BAY     DRZL/FOG  55  54  94 CALM      29.77F VSB 3/4
GRAND MARAIS     N/A     47  46  97 NE7       29.79S
G MARAIS ARPRT CLOUDY    57  55  94 E5        29.80F FOG
$$
MNZ029>031-032-039>041-046>048-054>057-064-290900-
   West Central Minnesota

CITY           SKY/WX    TMP DP  RH WIND       PRES   REMARKS
FERGUS FALLS   CLOUDY    59  59 100 NW8       29.84S
WHEATON        CLOUDY    61  59  94 W5        29.90S
MORRIS         CLOUDY    57  55  94 W5        29.88S FOG
ALEXANDRIA     LGT RAIN  59  57  93 W10       29.87S
ELBOW LAKE     CLOUDY    58  58 100 NW7       29.88S FOG
WADENA         LGT RAIN  57  57 100 W6        29.84S
GLENWOOD       DRIZZLE   57  57 100 W7        29.87S
APPLETON       CLOUDY    59  55  88 W6        29.88S
ORTONVILLE     CLOUDY    61  55  82 W6        29.90R
MADISON        CLOUDY    57  55  94 W6        29.90R
WILLMAR        DRIZZLE   61  59  94 W8        29.89R
$$
MNZ033>034-036-042>043-049>051-058-059-290900-
   Central Minnesota

CITY           SKY/WX    TMP DP  RH WIND       PRES   REMARKS
ST CLOUD       CLOUDY    59  58  96 W5        29.83S
SAUK CENTRE    DRIZZLE   59  58  96 W6        29.86S
PAYNESVILLE    RAIN      60  60 100 W7        29.87R
AITKIN         CLOUDY    61  55  82 CALM      29.80S
PINE RIVER     CLOUDY    57  57 100 W3        29.85S
BRAINERD       CLOUDY    59  58  96 W5        29.82F
STAPLES        CLOUDY    57  57 100 W5        29.83S
LONG PRAIRIE   RAIN      59  55  88 SW7       29.85S
LITTLE FALLS   CLOUDY    59  55  88 W3        29.84S
LITCHFIELD     CLOUDY    63  61  94 W7        29.86S
BUFFALO        CLOUDY    61  58  88 W5        29.85S
MAPLE LAKE     CLOUDY    61  60  94 CALM      29.85S
HUTCHINSON     CLOUDY    62  60  95 W7        29.87S
$$
MNZ037-044-045-052-053-290900-
   East Central Minnesota

CITY           SKY/WX    TMP DP  RH WIND       PRES   REMARKS
PRINCETON      CLOUDY    61  59  94 CALM      29.83S
MORA           CLOUDY    55  55 100 CALM      29.84R
CAMBRIDGE      CLOUDY    63  55  77 CALM      29.81S
RUSH CITY      CLOUDY    59  57  95 CALM      29.82S
MOOSE LAKE     LGT RAIN  55  55 100 CALM      29.79S
HINCKLEY       CLOUDY    59  59 100 CALM      29.81S
CLOQUET        CLOUDY    55  54  94 CALM      29.80F FOG
MCGREGOR       CLOUDY    59  57  94 CALM      29.81S
$$
MNZ071>073-080-081-089-090-097-098-290900-
   Southwest Minnesota

CITY           SKY/WX    TMP DP  RH WIND       PRES   REMARKS
MONTEVIDEO     PTCLDY    59  57  94 NW8       29.91R
GRANITE FALLS  CLOUDY    60  58  92 W8        29.91R
CANBY          CLEAR     61  57  88 W7        29.92R
MARSHALL       CLOUDY    59  57  93 W8        29.91R
REDWOOD FALLS  CLOUDY    61  57  87 W13       29.88S
OLIVIA         PTCLDY    59  55  88 W10       29.88R
PIPESTONE      CLEAR     57  55  94 W3        29.95R FOG
WINDOM         MOCLDY    61  57  88 CALM      29.92S
WORTHINGTON    MOCLDY    58  57  97 W12       29.95R
JACKSON        PTCLDY    59  55  88 W8        29.93R
TRACY          PTCLDY    60  59  95 W5        29.92R
SLAYTON        PTCLDY    58  58 100 W6        29.94S
$$
MNZ065>067-074>077-082>085-091>093-290900-
   South Central Minnesota

CITY           SKY/WX    TMP DP  RH WIND       PRES   REMARKS
MANKATO        MOCLDY    61  57  88 W9        29.87S
NEW ULM        PTCLDY    61  59  94 W16       29.88S
ST JAMES       PTCLDY    55  54  94 W8        29.91R
FAIRMONT       CLEAR     59  55  88 W10       29.91R
GLENCOE        CLOUDY    62  62  98 W6        29.85S
FARIBAULT      CLOUDY    61  61 100 W7        29.86S
OWATONNA       CLOUDY    61  57  88 W6        29.87S
WASECA         CLOUDY    59  57  94 W7        29.89R FOG
ALBERT LEA     CLOUDY    61  61 100 W5        29.88R FOG
$$
MNZ078>079-086>088-094>096-290900-
   Southeast Minnesota

CITY           SKY/WX    TMP DP  RH WIND       PRES   REMARKS
ROCHESTER      CLOUDY    62  61  96 NW9       29.87R
RED WING       CLOUDY    63  61  94 W5        29.83R FOG
STANTON        CLOUDY    61  58  91 W3        29.83F FOG
DODGE CENTER   DRIZZLE   61  59  94 NW8       29.86S
WINONA         CLOUDY    61  59  94 CALM      29.83S
AUSTIN         CLOUDY    61  59  94 NW5       29.87R
PRESTON        CLOUDY    61  58  91 SW6       29.87R
$$
ABBREVIATIONS USED IN REMARKS
   TC - TEMPERATURES IN CELSIUS
  WCI - WIND CHILL INDEX
   HX - HEAT INDEX
  VSB - VISIBILITY
$$




USA.gov is the U.S. government's official web portal to all federal, state and local government web resources and services.